| time (UTC) | temp C | wind direction | speed KPH | gust KPH | rain 1hr cm | rain 24hr cm | rain mn cm | humidity % | barometer mb |
| 20260904232207 | 20 | 172 | 0.0 | 0.0 | 0.00 | 0.91 | 0.91 | 81 | 1014.2 |
| 20260904231702 | 20 | 150 | 0.0 | 0.0 | 0.00 | 0.91 | 0.91 | 81 | 1014.1 |
| 20260904231157 | 20 | 107 | 1.6 | 3.2 | 0.00 | 0.91 | 0.91 | 80 | 1014.1 |
| 20260904230657 | 20 | 106 | 1.6 | 1.6 | 0.00 | 0.91 | 0.91 | 81 | 1013.9 |
| 20260904230152 | 20 | 143 | 1.6 | 1.6 | 0.00 | 0.91 | 0.91 | 80 | 1014.1 |
| 20260904225650 | 21 | 100 | 1.6 | 3.2 | 0.00 | 0.91 | 0.91 | 80 | 1013.9 |
| 20260904225145 | 21 | 110 | 1.6 | 1.6 | 0.00 | 0.91 | 0.91 | 78 | 1013.8 |
| 20260904224639 | 21 | 125 | 1.6 | 1.6 | 0.00 | 0.91 | 0.91 | 77 | 1013.6 |
| 20260904224139 | 21 | 116 | 1.6 | 1.6 | 0.00 | 0.91 | 0.91 | 76 | 1013.7 |
| 20260904223633 | 22 | 80 | 1.6 | 3.2 | 0.00 | 0.91 | 0.91 | 75 | 1013.8 |
| 20260904223129 | 22 | 101 | 1.6 | 3.2 | 0.00 | 0.91 | 0.91 | 73 | 1014.0 |
| 20260904222625 | 22 | 152 | 1.6 | 1.6 | 0.00 | 0.91 | 0.91 | 74 | 1013.9 |
| 20260904222120 | 22 | 144 | 1.6 | 1.6 | 0.00 | 0.91 | 0.91 | 73 | 1013.7 |
| 20260904221620 | 22 | 141 | 0.0 | 0.0 | 0.00 | 0.91 | 0.91 | 72 | 1013.8 |
| 20260904221119 | 22 | 147 | 0.0 | 0.0 | 0.00 | 0.91 | 0.91 | 72 | 1013.7 |
| 20260904220614 | 22 | 171 | 0.0 | 0.0 | 0.00 | 0.91 | 0.91 | 71 | 1013.7 |
| 20260904220110 | 23 | 81 | 3.2 | 3.2 | 0.00 | 0.91 | 0.91 | 70 | 1013.5 |
| 20260904215609 | 23 | 93 | 1.6 | 3.2 | 0.00 | 0.91 | 0.91 | 69 | 1013.6 |
| 20260904215106 | 23 | 125 | 1.6 | 1.6 | 0.00 | 0.91 | 0.91 | 68 | 1013.7 |
| 20260904214600 | 25 | 261 | 3.2 | 4.8 | 0.00 | 0.91 | 0.91 | 65 | 1013.5 |
| 20260904214056 | 25 | 237 | 3.2 | 3.2 | 0.00 | 0.91 | 0.91 | 65 | 1013.5 |
| 20260904213554 | 25 | 276 | 6.4 | 8.0 | 0.00 | 0.91 | 0.91 | 62 | 1013.5 |
| 20260904213051 | 25 | 291 | 6.4 | 11.3 | 0.00 | 0.91 | 0.91 | 63 | 1013.4 |
| 20260904212550 | 25 | 197 | 1.6 | 1.6 | 0.00 | 0.91 | 0.91 | 64 | 1013.7 |
| 20260904212045 | 25 | 275 | 6.4 | 9.7 | 0.00 | 0.91 | 0.91 | 63 | 1013.5 |
| 20260904211545 | 24 | 269 | 11.3 | 11.3 | 0.00 | 0.91 | 0.91 | 63 | 1013.6 |
| 20260904211040 | 25 | 228 | 6.4 | 8.0 | 0.00 | 0.91 | 0.91 | 62 | 1013.5 |
| 20260904210539 | 25 | 184 | 1.6 | 1.6 | 0.00 | 0.91 | 0.91 | 64 | 1013.4 |
| 20260904210037 | 25 | 192 | 3.2 | 4.8 | 0.00 | 0.91 | 0.91 | 61 | 1013.7 |
| 20260904205536 | 25 | 248 | 6.4 | 8.0 | 0.00 | 0.91 | 0.91 | 62 | 1013.4 |
| 20260904205033 | 25 | 250 | 6.4 | 8.0 | 0.00 | 0.91 | 0.91 | 61 | 1013.6 |
| 20260904204529 | 25 | 210 | 3.2 | 4.8 | 0.00 | 0.91 | 0.91 | 63 | 1013.8 |
| 20260904204025 | 25 | 67 | 1.6 | 3.2 | 0.00 | 0.91 | 0.91 | 63 | 1013.7 |
| 20260904203520 | 25 | 208 | 3.2 | 3.2 | 0.00 | 0.91 | 0.91 | 62 | 1013.8 |
| 20260904203017 | 25 | 212 | 1.6 | 3.2 | 0.00 | 0.91 | 0.91 | 62 | 1013.8 |
| 20260904202512 | 25 | 247 | 4.8 | 8.0 | 0.00 | 0.91 | 0.91 | 61 | 1013.9 |
| 20260904202009 | 26 | 309 | 8.0 | 11.3 | 0.00 | 0.91 | 0.91 | 59 | 1014.0 |
| 20260904201503 | 25 | 346 | 6.4 | 9.7 | 0.00 | 0.91 | 0.91 | 60 | 1014.1 |
| 20260904200959 | 25 | 322 | 6.4 | 11.3 | 0.00 | 0.91 | 0.91 | 61 | 1014.1 |
| 20260904200457 | 25 | 308 | 4.8 | 8.0 | 0.00 | 0.91 | 0.91 | 61 | 1014.1 |
| 20260904195953 | 25 | 204 | 1.6 | 1.6 | 0.00 | 0.91 | 0.91 | 62 | 1014.0 |
| 20260904195451 | 25 | 262 | 3.2 | 3.2 | 0.00 | 0.91 | 0.91 | 62 | 1014.3 |
| 20260904194950 | 25 | 301 | 6.4 | 9.7 | 0.00 | 0.91 | 0.91 | 61 | 1014.4 |
| 20260904194445 | 25 | 264 | 8.0 | 9.7 | 0.00 | 0.91 | 0.91 | 62 | 1014.2 |
| 20260904193940 | 26 | 196 | 1.6 | 3.2 | 0.00 | 0.91 | 0.91 | 60 | 1014.0 |
| 20260904193436 | 25 | 226 | 3.2 | 3.2 | 0.00 | 0.91 | 0.91 | 62 | 1014.3 |
| 20260904192931 | 25 | 290 | 8.0 | 12.9 | 0.00 | 0.91 | 0.91 | 63 | 1014.3 |
| 20260904192426 | 25 | 340 | 6.4 | 9.7 | 0.00 | 0.91 | 0.91 | 63 | 1014.3 |
| 20260904191922 | 25 | 325 | 11.3 | 12.9 | 0.00 | 0.91 | 0.91 | 62 | 1014.4 |
| 20260904191419 | 25 | 206 | 1.6 | 1.6 | 0.00 | 0.91 | 0.91 | 65 | 1014.4 |
| 20260904190915 | 25 | 151 | 0.0 | 1.6 | 0.00 | 0.91 | 0.91 | 66 | 1014.4 |
| 20260904190410 | 25 | 283 | 9.7 | 12.9 | 0.00 | 0.91 | 0.91 | 63 | 1014.5 |
| 20260904185907 | 24 | 306 | 4.8 | 4.8 | 0.00 | 0.91 | 0.91 | 65 | 1014.3 |
| 20260904185402 | 25 | 53 | 6.4 | 9.7 | 0.00 | 0.91 | 0.91 | 62 | 1014.6 |
| 20260904184902 | 26 | 257 | 6.4 | 9.7 | 0.00 | 0.91 | 0.91 | 62 | 1014.2 |
| 20260904184356 | 25 | 202 | 1.6 | 1.6 | 0.00 | 0.91 | 0.91 | 63 | 1014.5 |
| 20260904183851 | 25 | 149 | 3.2 | 4.8 | 0.00 | 0.91 | 0.91 | 63 | 1014.4 |
| 20260904183341 | 25 | 238 | 4.8 | 8.0 | 0.00 | 0.91 | 0.91 | 61 | 1015.0 |
| 20260904182836 | 25 | 314 | 8.0 | 9.7 | 0.00 | 0.91 | 0.91 | 61 | 1014.7 |
| 20260904182331 | 25 | 184 | 1.6 | 1.6 | 0.00 | 0.91 | 0.91 | 63 | 1014.6 |
| 20260904181827 | 25 | 294 | 8.0 | 12.9 | 0.00 | 0.91 | 0.91 | 62 | 1014.8 |
| 20260904181327 | 25 | 233 | 3.2 | 3.2 | 0.00 | 0.91 | 0.91 | 63 | 1014.6 |
| 20260904180822 | 25 | 287 | 12.9 | 14.5 | 0.00 | 0.91 | 0.91 | 61 | 1014.9 |
| 20260904180317 | 25 | 267 | 8.0 | 9.7 | 0.00 | 0.91 | 0.91 | 64 | 1015.1 |
| 20260904175816 | 24 | 215 | 3.2 | 3.2 | 0.00 | 0.91 | 0.91 | 65 | 1015.0 |
| 20260904175314 | 25 | 296 | 8.0 | 9.7 | 0.00 | 0.91 | 0.91 | 64 | 1014.9 |
| 20260904174809 | 24 | 313 | 11.3 | 14.5 | 0.00 | 0.91 | 0.91 | 65 | 1015.2 |
| 20260904174305 | 23 | 192 | 0.0 | 1.6 | 0.00 | 0.91 | 0.91 | 68 | 1015.1 |
| 20260904173801 | 24 | 54 | 4.8 | 8.0 | 0.00 | 0.91 | 0.91 | 66 | 1015.3 |
| 20260904173256 | 25 | 306 | 11.3 | 16.1 | 0.00 | 0.91 | 0.91 | 64 | 1015.2 |
| 20260904172752 | 24 | 174 | 1.6 | 3.2 | 0.00 | 0.91 | 0.91 | 69 | 1015.2 |
| 20260904172251 | 25 | 318 | 8.0 | 11.3 | 0.00 | 0.91 | 0.91 | 67 | 1015.4 |
| 20260904171746 | 24 | 273 | 6.4 | 9.7 | 0.00 | 0.91 | 0.91 | 66 | 1015.4 |
| 20260904171241 | 23 | 240 | 9.7 | 11.3 | 0.00 | 0.91 | 0.91 | 68 | 1015.3 |
| 20260904170738 | 23 | 273 | 9.7 | 11.3 | 0.00 | 0.91 | 0.91 | 67 | 1015.3 |
| 20260904170233 | 23 | 275 | 9.7 | 14.5 | 0.00 | 0.91 | 0.91 | 67 | 1015.5 |
| 20260904165733 | 23 | 287 | 4.8 | 4.8 | 0.00 | 0.91 | 0.91 | 69 | 1015.5 |
| 20260904165227 | 23 | 267 | 9.7 | 12.9 | 0.00 | 0.91 | 0.91 | 67 | 1015.5 |
| 20260904164727 | 24 | 294 | 9.7 | 11.3 | 0.00 | 0.91 | 0.91 | 66 | 1015.4 |
| 20260904164222 | 24 | 279 | 4.8 | 9.7 | 0.00 | 0.91 | 0.91 | 65 | 1015.3 |
| 20260904163718 | 24 | 148 | 1.6 | 1.6 | 0.00 | 0.91 | 0.91 | 67 | 1015.2 |
| 20260904163213 | 24 | 250 | 4.8 | 8.0 | 0.00 | 0.91 | 0.91 | 66 | 1015.1 |
| 20260904162712 | 23 | 250 | 1.6 | 4.8 | 0.00 | 0.91 | 0.91 | 69 | 1015.3 |
| 20260904162207 | 24 | 291 | 4.8 | 9.7 | 0.00 | 0.91 | 0.91 | 69 | 1015.0 |
| 20260904161703 | 24 | 173 | 3.2 | 3.2 | 0.00 | 0.91 | 0.91 | 70 | 1015.3 |
| 20260904161158 | 24 | 191 | 4.8 | 4.8 | 0.00 | 0.91 | 0.91 | 69 | 1015.3 |
| 20260904160654 | 24 | 191 | 1.6 | 3.2 | 0.00 | 0.91 | 0.91 | 69 | 1015.2 |
| 20260904160149 | 24 | 194 | 1.6 | 3.2 | 0.00 | 0.91 | 0.91 | 71 | 1015.3 |
| 20260904155644 | 23 | 336 | 6.4 | 8.0 | 0.00 | 0.91 | 0.91 | 71 | 1015.3 |
| 20260904155143 | 23 | 232 | 4.8 | 8.0 | 0.00 | 0.91 | 0.91 | 71 | 1015.3 |
| 20260904154642 | 23 | 299 | 4.8 | 4.8 | 0.00 | 0.91 | 0.91 | 72 | 1015.4 |
| 20260904154136 | 23 | 319 | 6.4 | 8.0 | 0.00 | 0.91 | 0.91 | 73 | 1015.1 |
| 20260904153631 | 23 | 234 | 4.8 | 8.0 | 0.00 | 0.91 | 0.91 | 74 | 1015.4 |
| 20260904153127 | 23 | 237 | 3.2 | 4.8 | 0.00 | 0.91 | 0.91 | 73 | 1015.2 |
| 20260904152623 | 23 | 112 | 3.2 | 3.2 | 0.00 | 0.91 | 0.91 | 74 | 1015.6 |
| 20260904152119 | 23 | 309 | 3.2 | 4.8 | 0.00 | 0.91 | 0.91 | 74 | 1015.8 |
| 20260904151613 | 23 | 34 | 3.2 | 4.8 | 0.00 | 0.91 | 0.91 | 75 | 1015.7 |
| 20260904151112 | 23 | 246 | 4.8 | 4.8 | 0.00 | 0.91 | 0.91 | 75 | 1015.8 |
| 20260904150608 | 23 | 76 | 1.6 | 3.2 | 0.00 | 0.91 | 0.91 | 77 | 1015.6 |
| 20260904145601 | 22 | 270 | 3.2 | 3.2 | 0.00 | 0.91 | 0.91 | 77 | 1015.5 |
| 20260904145056 | 22 | 329 | 8.0 | 11.3 | 0.00 | 0.91 | 0.91 | 79 | 1015.7 |
| 20260904144552 | 22 | 198 | 3.2 | 4.8 | 0.00 | 0.91 | 0.91 | 79 | 1015.7 |
| 20260904144048 | 21 | 195 | 1.6 | 3.2 | 0.00 | 0.91 | 0.91 | 80 | 1015.7 |
| 20260904143544 | 21 | 284 | 8.0 | 9.7 | 0.00 | 0.91 | 0.91 | 79 | 1015.8 |
| 20260904143040 | 22 | 206 | 1.6 | 3.2 | 0.00 | 0.91 | 0.91 | 79 | 1015.7 |
| 20260904142536 | 22 | 230 | 4.8 | 4.8 | 0.00 | 0.91 | 0.91 | 78 | 1015.7 |
| 20260904142032 | 22 | 155 | 0.0 | 1.6 | 0.00 | 0.91 | 0.91 | 80 | 1015.7 |
| 20260904141526 | 22 | 148 | 1.6 | 3.2 | 0.00 | 0.91 | 0.91 | 80 | 1015.7 |
| 20260904141022 | 21 | 335 | 8.0 | 9.7 | 0.00 | 0.91 | 0.91 | 80 | 1015.6 |
| 20260904140516 | 21 | 107 | 1.6 | 3.2 | 0.00 | 0.91 | 0.91 | 83 | 1016.0 |
| 20260904140016 | 21 | 328 | 4.8 | 4.8 | 0.00 | 0.91 | 0.91 | 83 | 1015.8 |
| 20260904135516 | 21 | 147 | 0.0 | 0.0 | 0.00 | 0.91 | 0.91 | 85 | 1015.8 |
| 20260904135012 | 22 | 22 | 11.3 | 14.5 | 0.00 | 0.91 | 0.91 | 83 | 1015.5 |
| 20260904134507 | 21 | 187 | 1.6 | 3.2 | 0.00 | 0.91 | 0.91 | 85 | 1015.7 |
| 20260904134001 | 20 | 273 | 3.2 | 8.0 | 0.00 | 0.91 | 0.91 | 86 | 1015.8 |
| 20260904133455 | 21 | 198 | 3.2 | 3.2 | 0.00 | 0.91 | 0.91 | 86 | 1015.8 |
| 20260904132951 | 20 | 180 | 1.6 | 1.6 | 0.00 | 0.91 | 0.91 | 89 | 1015.8 |
| 20260904132446 | 19 | 168 | 1.6 | 3.2 | 0.00 | 0.91 | 0.91 | 93 | 1015.4 |
| 20260904131946 | 19 | 321 | 4.8 | 8.0 | 0.00 | 0.91 | 0.91 | 95 | 1015.6 |
| 20260904131441 | 18 | 195 | 1.6 | 1.6 | 0.00 | 0.91 | 0.91 | 95 | 1015.5 |
| 20260904130937 | 18 | 141 | 1.6 | 1.6 | 0.00 | 0.91 | 0.91 | 95 | 1015.7 |
| 20260904130436 | 18 | 206 | 0.0 | 0.0 | 0.00 | 0.91 | 0.91 | 95 | 1015.6 |
| 20260904125931 | 18 | 185 | 1.6 | 1.6 | 0.00 | 0.91 | 0.91 | 95 | 1015.6 |
| 20260904125427 | 18 | 320 | 4.8 | 4.8 | 0.00 | 0.91 | 0.91 | 95 | 1015.5 |
| 20260904124926 | 18 | 258 | 3.2 | 3.2 | 0.00 | 0.91 | 0.91 | 95 | 1015.7 |
| 20260904124422 | 18 | 189 | 1.6 | 1.6 | 0.00 | 0.91 | 0.91 | 95 | 1015.6 |
| 20260904123913 | 18 | 188 | 3.2 | 4.8 | 0.00 | 0.91 | 0.91 | 95 | 1015.6 |
| 20260904123413 | 18 | 296 | 6.4 | 8.0 | 0.00 | 0.91 | 0.91 | 95 | 1015.7 |
| 20260904122908 | 18 | 169 | 0.0 | 0.0 | 0.00 | 0.91 | 0.91 | 95 | 1015.7 |
| 20260904122407 | 18 | 176 | 0.0 | 0.0 | 0.00 | 0.91 | 0.91 | 95 | 1015.5 |
| 20260904121902 | 18 | 54 | 1.6 | 3.2 | 0.00 | 0.91 | 0.91 | 95 | 1015.5 |
| 20260904121359 | 18 | 262 | 1.6 | 3.2 | 0.00 | 0.91 | 0.91 | 95 | 1015.4 |
| 20260904120855 | 18 | 169 | 0.0 | 0.0 | 0.00 | 0.91 | 0.91 | 95 | 1015.5 |
| 20260904120351 | 18 | 176 | 1.6 | 3.2 | 0.00 | 0.91 | 0.91 | 95 | 1015.6 |
| 20260904115846 | 18 | 143 | 0.0 | 0.0 | 0.00 | 0.91 | 0.91 | 95 | 1015.3 |
| 20260904115341 | 17 | 141 | 0.0 | 0.0 | 0.00 | 0.91 | 0.91 | 95 | 1015.5 |
| 20260904114835 | 17 | 265 | 1.6 | 3.2 | 0.00 | 0.91 | 0.91 | 95 | 1015.4 |
| 20260904114330 | 18 | 187 | 0.0 | 0.0 | 0.00 | 0.91 | 0.91 | 95 | 1015.5 |
| 20260904113825 | 18 | 153 | 0.0 | 0.0 | 0.00 | 0.91 | 0.91 | 95 | 1015.4 |
| 20260904113324 | 17 | 164 | 0.0 | 0.0 | 0.00 | 0.91 | 0.91 | 95 | 1015.3 |
| 20260904112819 | 17 | 181 | 0.0 | 0.0 | 0.00 | 0.91 | 0.91 | 95 | 1015.4 |
| 20260904112315 | 17 | 184 | 0.0 | 0.0 | 0.00 | 0.91 | 0.91 | 95 | 1015.3 |
| 20260904111810 | 17 | 173 | 0.0 | 0.0 | 0.00 | 0.91 | 0.91 | 95 | 1015.1 |
| 20260904111306 | 17 | 181 | 0.0 | 0.0 | 0.00 | 0.91 | 0.91 | 95 | 1015.5 |
| 20260904110802 | 17 | 183 | 0.0 | 0.0 | 0.00 | 0.91 | 0.91 | 95 | 1015.2 |
| 20260904110300 | 17 | 187 | 0.0 | 0.0 | 0.00 | 0.91 | 0.91 | 95 | 1015.3 |
| 20260904105756 | 17 | 140 | 0.0 | 0.0 | 0.00 | 0.91 | 0.91 | 95 | 1015.1 |
| 20260904105250 | 17 | 163 | 0.0 | 0.0 | 0.00 | 0.91 | 0.91 | 95 | 1015.1 |
| 20260904104746 | 18 | 156 | 0.0 | 0.0 | 0.00 | 0.91 | 0.91 | 95 | 1015.1 |
| 20260904104241 | 18 | 180 | 0.0 | 0.0 | 0.00 | 0.91 | 0.91 | 95 | 1015.1 |
| 20260904103738 | 18 | 179 | 0.0 | 0.0 | 0.00 | 0.91 | 0.91 | 95 | 1015.2 |
| 20260904103232 | 18 | 173 | 0.0 | 0.0 | 0.00 | 0.91 | 0.91 | 95 | 1014.9 |
| 20260904102728 | 18 | 278 | 4.8 | 4.8 | 0.00 | 0.91 | 0.91 | 95 | 1015.0 |
| 20260904102223 | 18 | 169 | 0.0 | 0.0 | 0.00 | 0.91 | 0.91 | 95 | 1015.0 |
| 20260904101720 | 18 | 157 | 0.0 | 0.0 | 0.00 | 0.91 | 0.91 | 95 | 1014.7 |
| 20260904101215 | 18 | 178 | 0.0 | 0.0 | 0.00 | 0.91 | 0.91 | 95 | 1014.7 |
| 20260904100711 | 18 | 177 | 0.0 | 0.0 | 0.00 | 0.91 | 0.91 | 95 | 1014.7 |
| 20260904100207 | 18 | 178 | 0.0 | 0.0 | 0.00 | 0.91 | 0.91 | 95 | 1014.7 |
| 20260904095706 | 18 | 178 | 0.0 | 0.0 | 0.00 | 0.91 | 0.91 | 95 | 1014.7 |
| 20260904095200 | 18 | 178 | 0.0 | 0.0 | 0.00 | 0.91 | 0.91 | 95 | 1014.7 |
| 20260904094650 | 18 | 179 | 0.0 | 0.0 | 0.00 | 0.91 | 0.91 | 95 | 1014.7 |
| 20260904094145 | 18 | 180 | 0.0 | 0.0 | 0.00 | 0.91 | 0.91 | 95 | 1014.6 |
| 20260904093642 | 18 | 180 | 0.0 | 0.0 | 0.00 | 0.91 | 0.91 | 95 | 1014.5 |
| 20260904093141 | 18 | 180 | 0.0 | 0.0 | 0.00 | 0.91 | 0.91 | 95 | 1014.6 |
| 20260904092638 | 18 | 180 | 0.0 | 0.0 | 0.00 | 0.91 | 0.91 | 95 | 1014.6 |
| 20260904092134 | 18 | 180 | 0.0 | 0.0 | 0.00 | 0.91 | 0.91 | 95 | 1014.7 |
| 20260904091630 | 18 | 184 | 0.0 | 0.0 | 0.00 | 0.91 | 0.91 | 95 | 1014.6 |
| 20260904091129 | 17 | 180 | 0.0 | 0.0 | 0.00 | 0.91 | 0.91 | 95 | 1014.6 |
| 20260904090625 | 17 | 179 | 0.0 | 0.0 | 0.00 | 0.91 | 0.91 | 95 | 1014.7 |
| 20260904090120 | 17 | 179 | 0.0 | 0.0 | 0.00 | 0.91 | 0.91 | 95 | 1014.5 |
| 20260904085615 | 17 | 179 | 0.0 | 0.0 | 0.00 | 0.91 | 0.91 | 95 | 1014.7 |
| 20260904085114 | 17 | 179 | 0.0 | 0.0 | 0.00 | 0.91 | 0.91 | 95 | 1014.6 |
| 20260904084610 | 18 | 179 | 0.0 | 0.0 | 0.00 | 0.91 | 0.91 | 95 | 1014.6 |
| 20260904084107 | 17 | 179 | 0.0 | 0.0 | 0.00 | 0.91 | 0.91 | 95 | 1014.4 |
| 20260904083603 | 17 | 179 | 0.0 | 0.0 | 0.00 | 0.91 | 0.91 | 95 | 1014.6 |
| 20260904083058 | 17 | 179 | 0.0 | 0.0 | 0.00 | 0.91 | 0.91 | 95 | 1014.4 |
| 20260904082553 | 17 | 177 | 0.0 | 0.0 | 0.00 | 0.91 | 0.91 | 95 | 1014.3 |
| 20260904082048 | 17 | 135 | 0.0 | 0.0 | 0.00 | 0.91 | 0.91 | 95 | 1014.3 |
| 20260904081543 | 18 | 148 | 0.0 | 0.0 | 0.00 | 0.91 | 0.91 | 95 | 1013.8 |
| 20260904081038 | 18 | 162 | 0.0 | 0.0 | 0.00 | 0.91 | 0.91 | 95 | 1013.9 |
| 20260904080534 | 18 | 167 | 0.0 | 0.0 | 0.00 | 0.91 | 0.91 | 95 | 1013.8 |
| 20260904080030 | 18 | 149 | 0.0 | 0.0 | 0.00 | 0.91 | 0.91 | 95 | 1014.0 |
| 20260904075526 | 18 | 153 | 0.0 | 0.0 | 0.00 | 0.91 | 0.91 | 95 | 1013.8 |
| 20260904075021 | 18 | 153 | 0.0 | 0.0 | 0.00 | 0.91 | 0.91 | 95 | 1013.6 |
| 20260904074515 | 17 | 153 | 0.0 | 0.0 | 0.00 | 0.91 | 0.91 | 95 | 1013.8 |
| 20260904074015 | 17 | 117 | 0.0 | 0.0 | 0.00 | 0.91 | 0.91 | 95 | 1013.8 |
| 20260904073510 | 18 | 161 | 0.0 | 0.0 | 0.00 | 0.91 | 0.91 | 95 | 1013.7 |
| 20260904073006 | 18 | 161 | 0.0 | 0.0 | 0.00 | 0.91 | 0.91 | 95 | 1013.9 |
| 20260904072502 | 18 | 153 | 0.0 | 0.0 | 0.00 | 0.91 | 0.91 | 95 | 1013.5 |
| 20260904071956 | 18 | 160 | 0.0 | 0.0 | 0.00 | 0.91 | 0.91 | 95 | 1013.7 |
| 20260904071451 | 18 | 174 | 0.0 | 0.0 | 0.00 | 0.91 | 0.91 | 95 | 1013.7 |
| 20260904070946 | 18 | 163 | 0.0 | 0.0 | 0.00 | 0.91 | 0.91 | 95 | 1013.7 |
| 20260904070445 | 18 | 198 | 0.0 | 1.6 | 0.00 | 0.91 | 0.91 | 95 | 1013.6 |
| 20260904065940 | 18 | 198 | 0.0 | 0.0 | 0.00 | 0.91 | 0.91 | 95 | 1013.7 |
| 20260904065436 | 18 | 187 | 0.0 | 0.0 | 0.00 | 0.91 | 0.91 | 95 | 1013.4 |
| 20260904064931 | 18 | 160 | 0.0 | 0.0 | 0.00 | 0.91 | 0.91 | 95 | 1013.4 |
| 20260904064427 | 18 | 117 | 1.6 | 1.6 | 0.00 | 0.91 | 0.91 | 95 | 1013.6 |
| 20260904063922 | 18 | 164 | 0.0 | 0.0 | 0.00 | 0.91 | 0.91 | 95 | 1013.5 |
| 20260904063419 | 19 | 201 | 0.0 | 0.0 | 0.00 | 0.91 | 0.91 | 95 | 1013.6 |
| 20260904062913 | 19 | 1 | 0.0 | 1.6 | 0.00 | 0.91 | 0.91 | 95 | 1013.7 |
| 20260904062409 | 19 | 184 | 0.0 | 0.0 | 0.00 | 0.91 | 0.91 | 95 | 1013.7 |
| 20260904061905 | 19 | 161 | 0.0 | 0.0 | 0.00 | 0.91 | 0.91 | 95 | 1013.5 |
| 20260904061401 | 20 | 183 | 0.0 | 0.0 | 0.00 | 0.91 | 0.91 | 95 | 1013.7 |
| 20260904060857 | 20 | 189 | 0.0 | 0.0 | 0.00 | 0.91 | 0.91 | 95 | 1013.9 |
| 20260904060353 | 20 | 191 | 0.0 | 0.0 | 0.00 | 0.91 | 0.91 | 95 | 1013.7 |
| 20260904055848 | 20 | 113 | 1.6 | 1.6 | 0.00 | 0.91 | 0.91 | 95 | 1013.8 |
| 20260904055343 | 20 | 188 | 0.0 | 0.0 | 0.00 | 0.91 | 0.91 | 95 | 1014.1 |
| 20260904054838 | 20 | 182 | 0.0 | 0.0 | 0.00 | 0.91 | 0.91 | 95 | 1014.1 |
| 20260904054334 | 20 | 178 | 0.0 | 0.0 | 0.00 | 0.91 | 0.91 | 95 | 1013.9 |
| 20260904053829 | 20 | 178 | 0.0 | 0.0 | 0.00 | 0.91 | 0.91 | 95 | 1014.2 |
| 20260904053328 | 20 | 171 | 0.0 | 0.0 | 0.00 | 0.91 | 0.91 | 95 | 1014.0 |
| 20260904052825 | 20 | 169 | 0.0 | 0.0 | 0.00 | 0.91 | 0.91 | 95 | 1014.2 |
| 20260904052321 | 20 | 167 | 0.0 | 0.0 | 0.00 | 0.91 | 0.91 | 95 | 1014.1 |
| 20260904051812 | 20 | 162 | 0.0 | 0.0 | 0.00 | 0.91 | 0.91 | 95 | 1014.2 |
| 20260904051307 | 20 | 162 | 0.0 | 0.0 | 0.00 | 0.91 | 0.91 | 95 | 1014.3 |
| 20260904050802 | 20 | 164 | 0.0 | 0.0 | 0.00 | 0.91 | 0.91 | 95 | 1014.3 |
| 20260904050258 | 20 | 191 | 0.0 | 0.0 | 0.00 | 0.91 | 0.91 | 95 | 1014.3 |
| 20260904045752 | 20 | 191 | 0.0 | 0.0 | 0.00 | 0.91 | 0.91 | 95 | 1014.3 |
| 20260904045247 | 20 | 182 | 0.0 | 0.0 | 0.13 | 0.91 | 0.91 | 95 | 1014.3 |
| 20260904044742 | 20 | 201 | 0.0 | 0.0 | 0.61 | 0.91 | 0.91 | 95 | 1014.4 |
| 20260904044239 | 20 | 105 | 3.2 | 3.2 | 0.79 | 0.89 | 0.89 | 95 | 1014.5 |
| 20260904043735 | 20 | 185 | 0.0 | 0.0 | 0.79 | 0.81 | 0.81 | 95 | 1014.6 |
| 20260904043231 | 21 | 234 | 1.6 | 1.6 | 1.37 | 0.76 | 0.76 | 95 | 1014.6 |
| 20260904042726 | 21 | 220 | 0.0 | 1.6 | 1.80 | 0.69 | 0.69 | 95 | 1014.7 |
| 20260904042223 | 21 | 297 | 4.8 | 4.8 | 1.37 | 0.51 | 0.51 | 95 | 1015.1 |
| 20260904041722 | 21 | 33 | 1.6 | 3.2 | 1.37 | 0.38 | 0.38 | 95 | 1014.8 |
| 20260904041218 | 21 | 184 | 0.0 | 0.0 | 1.55 | 0.28 | 0.28 | 95 | 1014.8 |
| 20260904040714 | 21 | 248 | 1.6 | 3.2 | 1.19 | 0.15 | 0.15 | 95 | 1014.6 |
| 20260904040210 | 21 | 285 | 1.6 | 3.2 | 0.89 | 0.03 | 0.03 | 95 | 1014.5 |
| 20260904035705 | 21 | 5 | 3.2 | 3.2 | 0.48 | 1.12 | 1.12 | 95 | 1014.3 |
| 20260904035201 | 21 | 206 | 1.6 | 3.2 | 0.18 | 1.07 | 1.07 | 95 | 1014.5 |
| 20260904034659 | 21 | 191 | 0.0 | 0.0 | 0.00 | 1.04 | 1.04 | 95 | 1014.3 |
| 20260904034155 | 21 | 166 | 0.0 | 0.0 | 0.00 | 1.04 | 1.04 | 95 | 1014.0 |
| 20260904033651 | 21 | 186 | 0.0 | 0.0 | 0.00 | 1.04 | 1.04 | 95 | 1014.2 |
| 20260904033148 | 21 | 176 | 0.0 | 0.0 | 0.00 | 1.04 | 1.04 | 95 | 1014.1 |
| 20260904032643 | 21 | 163 | 0.0 | 0.0 | 0.00 | 1.04 | 1.04 | 95 | 1014.2 |
| 20260904032142 | 21 | 173 | 0.0 | 0.0 | 0.00 | 1.04 | 1.04 | 95 | 1014.1 |
| 20260904031642 | 21 | 177 | 0.0 | 0.0 | 0.00 | 1.04 | 1.04 | 95 | 1014.1 |
| 20260904031138 | 21 | 183 | 0.0 | 0.0 | 0.00 | 1.04 | 1.04 | 95 | 1014.2 |
| 20260904030634 | 21 | 183 | 0.0 | 0.0 | 0.00 | 1.04 | 1.04 | 95 | 1014.2 |
| 20260904030128 | 21 | 151 | 0.0 | 0.0 | 0.00 | 1.04 | 1.04 | 95 | 1014.1 |
| 20260904025624 | 21 | 173 | 0.0 | 0.0 | 0.00 | 1.04 | 1.04 | 95 | 1014.3 |
| 20260904025119 | 21 | 156 | 0.0 | 0.0 | 0.00 | 1.04 | 1.04 | 95 | 1014.2 |
| 20260904024614 | 21 | 159 | 0.0 | 0.0 | 0.00 | 1.04 | 1.04 | 95 | 1014.1 |
| 20260904024110 | 21 | 174 | 0.0 | 0.0 | 0.00 | 1.04 | 1.04 | 95 | 1014.0 |
| 20260904023606 | 21 | 182 | 0.0 | 0.0 | 0.00 | 1.04 | 1.04 | 95 | 1014.3 |
| 20260904023102 | 21 | 182 | 0.0 | 0.0 | 0.00 | 1.04 | 1.04 | 95 | 1014.5 |
| 20260904022602 | 21 | 182 | 0.0 | 0.0 | 0.00 | 1.04 | 1.04 | 95 | 1014.3 |
| 20260904022059 | 21 | 182 | 0.0 | 0.0 | 0.00 | 1.04 | 1.04 | 95 | 1014.3 |
| 20260904021554 | 21 | 193 | 0.0 | 0.0 | 0.00 | 1.04 | 1.04 | 95 | 1014.4 |
| 20260904021049 | 21 | 193 | 0.0 | 0.0 | 0.13 | 1.04 | 1.04 | 95 | 1014.3 |
| 20260904020544 | 21 | 204 | 0.0 | 0.0 | 0.13 | 1.04 | 1.04 | 95 | 1014.8 |
| 20260904020039 | 21 | 188 | 0.0 | 0.0 | 0.00 | 1.02 | 1.02 | 95 | 1014.6 |
| 20260904015533 | 21 | 190 | 0.0 | 0.0 | 0.00 | 1.02 | 1.02 | 95 | 1014.7 |
| 20260904015033 | 21 | 191 | 0.0 | 0.0 | 0.00 | 1.02 | 1.02 | 95 | 1014.8 |
| 20260904014526 | 21 | 191 | 0.0 | 0.0 | 0.00 | 1.02 | 1.02 | 95 | 1014.6 |
| 20260904014022 | 21 | 189 | 0.0 | 0.0 | 0.00 | 1.02 | 1.02 | 95 | 1014.6 |
| 20260904013518 | 21 | 190 | 0.0 | 0.0 | 0.00 | 1.02 | 1.02 | 95 | 1014.8 |
| 20260904013015 | 21 | 186 | 0.0 | 0.0 | 0.00 | 1.02 | 1.02 | 95 | 1014.6 |
| 20260904012514 | 21 | 186 | 0.0 | 0.0 | 0.00 | 1.02 | 1.02 | 95 | 1014.7 |
| 20260904012009 | 21 | 190 | 0.0 | 0.0 | 0.00 | 1.02 | 1.02 | 95 | 1014.6 |
| 20260904011503 | 21 | 186 | 0.0 | 0.0 | 0.00 | 1.02 | 1.02 | 95 | 1014.9 |
| 20260904010959 | 21 | 189 | 0.0 | 0.0 | 0.00 | 1.02 | 1.02 | 95 | 1014.8 |
| 20260904010454 | 21 | 186 | 0.0 | 0.0 | 0.00 | 1.02 | 1.02 | 95 | 1014.8 |
| 20260904005949 | 21 | 189 | 0.0 | 0.0 | 0.00 | 1.02 | 1.02 | 95 | 1014.8 |
| 20260904005445 | 21 | 189 | 0.0 | 0.0 | 0.00 | 1.02 | 1.02 | 95 | 1014.7 |
| 20260904004939 | 21 | 191 | 0.0 | 0.0 | 0.00 | 1.02 | 1.02 | 95 | 1014.8 |
| 20260904004436 | 21 | 186 | 0.0 | 0.0 | 0.00 | 1.02 | 1.02 | 95 | 1014.6 |
| 20260904003936 | 21 | 198 | 0.0 | 0.0 | 0.00 | 1.02 | 1.02 | 95 | 1014.5 |
| 20260904003432 | 21 | 198 | 0.0 | 0.0 | 0.00 | 1.02 | 1.02 | 95 | 1014.4 |
| 20260904002927 | 21 | 214 | 0.0 | 0.0 | 0.00 | 1.02 | 1.02 | 95 | 1014.4 |
| 20260904002423 | 21 | 197 | 0.0 | 0.0 | 0.00 | 1.02 | 1.02 | 95 | 1014.5 |
| 20260904001922 | 21 | 196 | 0.0 | 0.0 | 0.00 | 1.02 | 1.02 | 95 | 1014.3 |
| 20260904001418 | 21 | 196 | 0.0 | 0.0 | 0.00 | 1.02 | 1.02 | 95 | 1014.3 |
| 20260904000912 | 21 | 196 | 0.0 | 0.0 | 0.00 | 1.02 | 1.02 | 95 | 1014.0 |
| 20260904000412 | 21 | 110 | 3.2 | 3.2 | 0.00 | 1.02 | 1.02 | 95 | 1014.4 |
| 20260903235907 | 21 | 164 | 0.0 | 0.0 | 0.00 | 1.02 | 1.02 | 95 | 1014.2 |
| 20260903235403 | 21 | 180 | 0.0 | 0.0 | 0.00 | 1.02 | 1.02 | 95 | 1014.2 |
| 20260903234902 | 21 | 180 | 0.0 | 0.0 | 0.00 | 1.02 | 1.02 | 95 | 1014.2 |
| 20260903234358 | 21 | 181 | 0.0 | 0.0 | 0.00 | 1.02 | 1.02 | 95 | 1014.2 |
| 20260903233854 | 21 | 191 | 0.0 | 0.0 | 0.00 | 1.02 | 1.02 | 95 | 1014.3 |
| 20260903233350 | 21 | 190 | 0.0 | 0.0 | 0.00 | 1.02 | 1.02 | 95 | 1014.4 |
| 20260903232849 | 21 | 199 | 0.0 | 0.0 | 0.00 | 1.02 | 1.02 | 95 | 1014.2 |